Flag for Thailand Weather past 2 weeks in Hat Yai, Thailand

Now
88 °F

Broken clouds.


Feels Like: 94 °F
Forecast: 74 / 87 °F
Wind: 9 mph from East

Location: Hat Yai Airport

Current Time: Jan 30, 2015 at 12:18:45 PM

Latest Report: Jan 30, 2015 at 11:30 AM


Visibility: N/A

Pressure: 29.95 "Hg

Humidity: 59%

Dew point: 72 °F

Location of Hat YaiLocation

Historic Weather in Hat Yai — Graph

°F

Hat Yai temperature yesterday

Maximum temperature yesterday: 90 °F (at 1:00 PM)
Minimum temperature yesterday: 70 °F (at 3:00 AM)
Average temperature yesterday: 79 °F

Past Weeks' High & Low Weather Summary

 TemperatureHumidityPressure
High90 °F (Jan 29, 1:00 PM)100% (Jan 16, 1:30 AM)30.04 "Hg (Jan 16, 1:30 AM)
Low36 °F (Jan 27, 7:30 PM)52% (Jan 28, 12:00 PM)29.80 "Hg (Jan 28, 3:00 PM)
Average78 °F81%29.92 "Hg
* Reported Jan 15 11:00 AM — Jan 30 11:00 AM, Hat Yai, Weather by CustomWeather, © 2014

Note: Actual official high and low records may vary slightly from our data, if they occured in-between our weather recording intervals... More about our weather records

Advertising

Hat Yai weather history for previous 24 hours

 ConditionsComfort  
Time TempWeatherWind HumidityBarometerVisibility
11:00 AM
Jan 30
88 °FBroken clouds.10 mph59%29.95 "HgN/A
10:30 AM86 °FBroken clouds.10 mph62%29.95 "HgN/A
10:00 AM84 °FBroken clouds.7 mph70%29.98 "HgN/A
9:30 AM84 °FBroken clouds.6 mph70%29.98 "HgN/A
9:00 AM82 °FBroken clouds.2 mph74%29.95 "HgN/A
8:30 AM81 °FPartly sunny.5 mph79%29.95 "HgN/A
8:00 AM77 °FPartly sunny.2 mph89%29.92 "Hg6 mi
7:30 AM75 °FPartly sunny.2 mph89%29.92 "Hg6 mi
7:00 AM73 °FPartly sunny.5 mph94%29.89 "Hg5 mi
6:30 AM72 °FPartly cloudy.No wind100%29.89 "Hg5 mi
6:00 AM73 °FPartly cloudy.No wind94%29.86 "Hg4 mi
5:30 AM73 °FPassing clouds.2 mph94%29.86 "Hg4 mi
5:00 AM73 °FPartly cloudy.2 mph94%29.86 "Hg4 mi
4:30 AM73 °FPartly cloudy.5 mph94%29.86 "Hg4 mi
4:00 AM73 °FPartly cloudy.2 mph94%29.86 "Hg4 mi
3:30 AM75 °FPartly cloudy.No wind89%29.83 "Hg4 mi
3:00 AM75 °FPartly cloudy.3 mph89%29.86 "Hg4 mi
2:30 AM75 °FPartly cloudy.2 mph89%29.86 "Hg5 mi
2:00 AM75 °FPartly cloudy.3 mph89%29.86 "Hg5 mi
1:30 AM77 °FPassing clouds.3 mph83%29.86 "Hg6 mi
1:00 AM75 °FPassing clouds.3 mph94%29.89 "Hg6 mi
12:30 AM75 °FPassing clouds.3 mph94%29.89 "Hg6 mi
12:00 AM77 °FPassing clouds.2 mph83%29.89 "Hg6 mi
11:30 PM
Jan 29
77 °FPassing clouds.5 mph89%29.89 "HgN/A
11:00 PM77 °FPassing clouds.3 mph89%29.89 "HgN/A
10:30 PM77 °FPassing clouds.5 mph89%29.89 "HgN/A
10:00 PM79 °FPassing clouds.9 mph84%29.89 "HgN/A
9:30 PM79 °FPassing clouds.12 mph84%29.89 "HgN/A
9:00 PM79 °FPassing clouds.9 mph84%29.89 "HgN/A
8:30 PM79 °FPassing clouds.12 mph84%29.89 "HgN/A
8:00 PM79 °FPassing clouds.6 mph84%29.89 "HgN/A
7:30 PM81 °FPassing clouds.7 mph79%29.86 "HgN/A
7:00 PM81 °FPassing clouds.7 mph79%29.86 "HgN/A
6:30 PM82 °FPassing clouds.9 mph62%29.86 "HgN/A
6:00 PM84 °FScattered clouds.14 mph58%29.83 "HgN/A
5:30 PM86 °FScattered clouds.14 mph59%29.83 "HgN/A
5:00 PM88 °FScattered clouds.13 mph59%29.83 "HgN/A
4:30 PM88 °FPartly sunny.12 mph62%29.80 "HgN/A
4:00 PM90 °FPartly sunny.14 mph63%29.80 "HgN/A
3:30 PM90 °FPartly sunny.10 mph63%29.83 "HgN/A
3:00 PM90 °FPartly sunny.10 mph67%29.83 "HgN/A
2:30 PM90 °FPartly sunny.14 mph71%29.83 "HgN/A
2:00 PM90 °FPartly sunny.13 mph75%29.86 "HgN/A
1:30 PM90 °FPartly sunny.14 mph75%29.86 "HgN/A
1:00 PM90 °FPartly sunny.14 mph79%29.89 "HgN/A
12:30 PM88 °FBroken clouds.14 mph79%29.89 "HgN/A
12:00 PM86 °FBroken clouds.12 mph84%29.89 "HgN/A
Weather by CustomWeather, © 2014

See weather overviewHow to use our weather pages